Time,TemperatureF,DewpointF,PressureIn,WindDirection,WindDirectionDegrees,WindSpeedMPH,WindSpeedGustMPH,Humidity,HourlyPrecipIn,Conditions,Clouds,dailyrainin,SoftwareType,DateUTC
2013-02-16 00:02:00,42.0,41.0,29.96,SSE,157,0.0,0.0,97,0.00,,,0.00,,2013-02-16 05:02:00,
2013-02-16 00:12:00,42.0,41.0,29.96,SSE,157,0.0,0.0,97,0.00,,,0.00,,2013-02-16 05:12:00,
2013-02-16 00:22:00,42.0,41.0,29.95,SSE,157,0.0,0.0,97,0.00,,,0.00,,2013-02-16 05:22:00,
2013-02-16 00:32:00,42.0,41.0,29.94,SSE,157,0.0,0.0,98,0.00,,,0.00,,2013-02-16 05:32:00,
2013-02-16 00:42:00,42.0,41.0,29.94,SSE,157,0.0,0.0,98,0.00,,,0.00,,2013-02-16 05:42:00,
2013-02-16 00:52:00,42.0,41.0,29.94,SSE,157,0.0,0.0,97,0.00,,,0.00,,2013-02-16 05:52:00,
2013-02-16 01:02:00,42.0,41.0,29.94,SSE,157,0.0,0.0,97,0.00,,,0.00,,2013-02-16 06:02:00,
2013-02-16 01:11:00,42.0,41.0,29.94,SSE,157,0.0,0.0,97,0.00,,,0.00,,2013-02-16 06:11:00,
2013-02-16 01:22:00,42.0,41.0,29.94,SSE,157,0.0,0.0,98,0.00,,,0.00,,2013-02-16 06:22:00,
2013-02-16 01:32:00,42.0,41.0,29.94,SSE,157,0.0,0.0,98,0.00,,,0.00,,2013-02-16 06:32:00,
2013-02-16 01:42:00,42.0,41.0,29.94,SSE,157,0.0,0.0,98,0.00,,,0.00,,2013-02-16 06:42:00,
2013-02-16 01:52:00,42.0,41.0,29.93,SSE,156,0.0,0.0,98,0.00,,,0.00,,2013-02-16 06:52:00,
2013-02-16 02:02:00,42.0,41.0,29.93,SSE,157,0.0,0.0,98,0.00,,,0.00,,2013-02-16 07:02:00,
2013-02-16 02:11:00,42.0,41.0,29.93,SSE,157,0.0,0.0,98,0.00,,,0.00,,2013-02-16 07:11:00,
2013-02-16 02:22:00,42.0,41.0,29.93,SSE,157,0.0,0.0,98,0.00,,,0.00,,2013-02-16 07:22:00,
2013-02-16 02:32:00,42.0,41.0,29.93,SSE,157,0.0,0.0,98,0.00,,,0.00,,2013-02-16 07:32:00,
2013-02-16 02:42:00,42.0,41.0,29.93,SSE,157,0.0,0.0,98,0.00,,,0.00,,2013-02-16 07:42:00,
2013-02-16 02:53:00,42.0,41.0,29.92,SSE,157,0.0,0.0,98,0.00,,,0.00,,2013-02-16 07:53:00,
2013-02-16 03:01:00,42.0,41.0,29.92,SSE,158,0.0,1.0,98,0.00,,,0.00,,2013-02-16 08:01:00,
2013-02-16 03:11:00,42.0,41.0,29.92,SSE,158,0.0,1.0,98,0.00,,,0.00,,2013-02-16 08:11:00,
2013-02-16 03:21:00,42.0,41.0,29.91,SSE,158,0.0,0.0,98,0.00,,,0.00,,2013-02-16 08:21:00,
2013-02-16 03:32:00,42.0,41.0,29.91,SSE,158,0.0,0.0,98,0.00,,,0.00,,2013-02-16 08:32:00,
2013-02-16 03:42:00,42.0,41.0,29.91,SSE,158,0.0,0.0,98,0.00,,,0.00,,2013-02-16 08:42:00,
2013-02-16 03:52:00,42.0,41.0,29.90,SSE,157,0.0,0.0,98,0.00,,,0.00,,2013-02-16 08:52:00,
2013-02-16 04:02:00,42.0,41.0,29.89,SSE,157,0.0,0.0,98,0.00,,,0.00,,2013-02-16 09:02:00,
2013-02-16 04:11:00,42.0,41.0,29.89,SSE,157,0.0,0.0,98,0.00,,,0.00,,2013-02-16 09:11:00,
2013-02-16 04:21:00,42.0,41.0,29.88,SSE,157,0.0,0.0,98,0.00,,,0.00,,2013-02-16 09:21:00,
2013-02-16 04:32:00,42.0,41.0,29.88,SSE,157,0.0,0.0,98,0.00,,,0.00,,2013-02-16 09:32:00,
2013-02-16 04:42:00,42.0,41.0,29.88,SSE,157,0.0,0.0,98,0.00,,,0.00,,2013-02-16 09:42:00,
2013-02-16 04:51:00,41.0,40.0,29.87,SSE,158,0.0,0.0,98,0.00,,,0.00,,2013-02-16 09:51:00,
2013-02-16 05:01:00,41.0,40.0,29.87,SSE,157,0.0,0.0,98,0.00,,,0.00,,2013-02-16 10:01:00,
2013-02-16 05:11:00,41.0,40.0,29.87,SSE,157,0.0,0.0,98,0.00,,,0.00,,2013-02-16 10:11:00,
2013-02-16 05:21:00,41.0,40.0,29.87,SSE,158,0.0,0.0,98,0.00,,,0.00,,2013-02-16 10:21:00,
2013-02-16 05:32:00,41.0,40.0,29.87,SSE,158,0.0,0.0,98,0.00,,,0.00,,2013-02-16 10:32:00,
2013-02-16 05:42:00,41.0,40.0,29.87,SSE,158,0.0,0.0,98,0.00,,,0.00,,2013-02-16 10:42:00,
2013-02-16 05:52:00,41.0,40.0,29.87,SSE,157,0.0,2.0,98,0.00,,,0.00,,2013-02-16 10:52:00,
2013-02-16 06:02:00,41.0,41.0,29.87,SSE,157,0.0,2.0,99,0.00,,,0.00,,2013-02-16 11:02:00,
2013-02-16 06:11:00,41.0,41.0,29.87,SSE,157,0.0,2.0,99,0.00,,,0.00,,2013-02-16 11:11:00,
2013-02-16 06:22:00,42.0,42.0,29.86,SSE,158,1.0,2.0,99,0.00,,,0.00,,2013-02-16 11:22:00,
2013-02-16 06:32:00,42.0,42.0,29.86,SSE,158,0.0,2.0,99,0.00,,,0.00,,2013-02-16 11:32:00,
2013-02-16 06:42:00,42.0,42.0,29.86,SSE,158,0.0,2.0,99,0.00,,,0.00,,2013-02-16 11:42:00,
2013-02-16 06:52:00,41.0,40.0,29.87,SSE,157,0.0,0.0,98,0.00,,,0.00,,2013-02-16 11:52:00,
2013-02-16 07:02:00,41.0,40.0,29.87,SSE,157,0.0,0.0,98,0.00,,,0.00,,2013-02-16 12:02:00,
2013-02-16 07:12:00,41.0,40.0,29.87,SSE,157,0.0,0.0,98,0.00,,,0.00,,2013-02-16 12:12:00,
2013-02-16 07:22:00,41.0,41.0,29.86,SSE,158,0.0,1.0,99,0.00,,,0.00,,2013-02-16 12:22:00,
2013-02-16 07:32:00,41.0,41.0,29.86,SSE,158,0.0,1.0,99,0.00,,,0.00,,2013-02-16 12:32:00,
2013-02-16 07:42:00,41.0,41.0,29.86,SSE,158,0.0,1.0,99,0.00,,,0.00,,2013-02-16 12:42:00,
2013-02-16 07:52:00,41.0,41.0,29.85,SSW,193,0.0,0.0,99,0.00,,,0.00,,2013-02-16 12:52:00,
2013-02-16 08:02:00,41.0,40.0,29.85,SSW,193,0.0,0.0,98,0.00,,,0.00,,2013-02-16 13:02:00,
2013-02-16 08:12:00,41.0,40.0,29.85,SSW,193,0.0,0.0,98,0.00,,,0.00,,2013-02-16 13:12:00,
2013-02-16 08:22:00,41.0,41.0,29.85,SSW,197,0.0,0.0,99,0.00,,,0.00,,2013-02-16 13:22:00,
2013-02-16 08:32:00,43.0,43.0,29.85,West,268,1.0,3.0,99,0.00,,,0.00,,2013-02-16 13:32:00,
2013-02-16 08:41:00,43.0,43.0,29.85,West,268,1.0,3.0,99,0.00,,,0.00,,2013-02-16 13:41:00,
2013-02-16 08:51:00,46.0,46.0,29.84,NW,311,1.0,3.0,99,0.00,,,0.00,,2013-02-16 13:51:00,
2013-02-16 09:01:00,46.0,46.0,29.84,NW,311,1.0,3.0,99,0.00,,,0.00,,2013-02-16 14:01:00,
2013-02-16 09:11:00,46.0,46.0,29.84,NW,311,1.0,3.0,99,0.00,,,0.00,,2013-02-16 14:11:00,
2013-02-16 09:21:00,47.0,46.0,29.85,NNW,340,1.0,5.0,98,0.00,,,0.00,,2013-02-16 14:21:00,
2013-02-16 09:32:00,48.0,46.0,29.85,ENE,70,2.0,6.0,93,0.00,,,0.00,,2013-02-16 14:32:00,
2013-02-16 09:42:00,48.0,46.0,29.85,ENE,70,2.0,6.0,93,0.00,,,0.00,,2013-02-16 14:42:00,
2013-02-16 09:52:00,49.0,46.0,29.85,SE,125,1.0,5.0,90,0.00,,,0.00,,2013-02-16 14:52:00,
2013-02-16 10:02:00,49.0,46.0,29.85,West,270,1.0,7.0,91,0.00,,,0.00,,2013-02-16 15:02:00,
2013-02-16 10:11:00,49.0,46.0,29.85,West,270,1.0,7.0,91,0.00,,,0.00,,2013-02-16 15:11:00,
2013-02-16 10:22:00,49.0,45.0,29.84,North,350,3.0,5.0,87,0.00,,,0.00,,2013-02-16 15:22:00,
2013-02-16 10:32:00,51.0,46.0,29.84,NNE,17,2.0,7.0,84,0.00,,,0.00,,2013-02-16 15:32:00,
2013-02-16 10:42:00,51.0,46.0,29.84,NNE,17,2.0,7.0,84,0.00,,,0.00,,2013-02-16 15:42:00,
2013-02-16 10:52:00,52.0,46.0,29.83,NNW,331,2.0,7.0,80,0.00,,,0.00,,2013-02-16 15:52:00,
2013-02-16 11:02:00,52.0,46.0,29.83,NNW,331,2.0,7.0,80,0.00,,,0.00,,2013-02-16 16:02:00,
2013-02-16 11:11:00,52.0,46.0,29.83,NNW,331,2.0,7.0,80,0.00,,,0.00,,2013-02-16 16:11:00,
2013-02-16 11:21:00,52.0,46.0,29.83,NNW,331,2.0,7.0,80,0.00,,,0.00,,2013-02-16 16:21:00,
2013-02-16 11:32:00,52.0,46.0,29.83,NNW,331,2.0,7.0,80,0.00,,,0.00,,2013-02-16 16:32:00,
2013-02-16 11:52:00,55.0,45.0,29.83,West,278,2.0,6.0,70,0.00,,,0.00,,2013-02-16 16:52:00,
2013-02-16 12:01:00,55.0,45.0,29.83,West,278,2.0,6.0,70,0.00,,,0.00,,2013-02-16 17:01:00,
2013-02-16 12:11:00,55.0,45.0,29.83,West,278,2.0,6.0,70,0.00,,,0.00,,2013-02-16 17:11:00,
2013-02-16 12:22:00,55.0,43.0,29.83,NNW,338,3.0,8.0,65,0.00,,,0.00,,2013-02-16 17:22:00,
2013-02-16 12:32:00,54.0,43.0,29.83,NNE,24,3.0,12.0,65,0.00,,,0.00,,2013-02-16 17:32:00,
2013-02-16 12:42:00,54.0,43.0,29.83,NNE,24,3.0,12.0,65,0.00,,,0.00,,2013-02-16 17:42:00,
2013-02-16 12:52:00,53.0,42.0,29.83,NNW,327,3.0,12.0,66,0.00,,,0.00,,2013-02-16 17:52:00,
2013-02-16 13:02:00,53.0,42.0,29.83,NNW,327,3.0,12.0,66,0.00,,,0.00,,2013-02-16 18:02:00,
2013-02-16 13:11:00,52.0,40.0,29.82,NNW,330,5.0,12.0,64,0.00,,,0.00,,2013-02-16 18:11:00,
2013-02-16 13:22:00,52.0,40.0,29.82,NNW,330,5.0,12.0,64,0.00,,,0.00,,2013-02-16 18:22:00,
2013-02-16 13:33:00,51.0,39.0,29.82,West,262,5.0,14.0,64,0.00,,,0.00,,2013-02-16 18:33:00,
2013-02-16 13:42:00,51.0,39.0,29.82,West,262,5.0,14.0,64,0.00,,,0.00,,2013-02-16 18:42:00,
2013-02-16 13:52:00,51.0,40.0,29.82,WNW,299,5.0,12.0,65,0.00,,,0.00,,2013-02-16 18:52:00,
2013-02-16 14:02:00,49.0,38.0,29.82,NNW,333,4.0,17.0,66,0.00,,,0.00,,2013-02-16 19:02:00,
2013-02-16 14:11:00,49.0,38.0,29.82,NNW,333,4.0,17.0,66,0.00,,,0.00,,2013-02-16 19:11:00,
2013-02-16 14:22:00,47.0,38.0,29.84,West,278,5.0,15.0,72,0.00,,,0.00,,2013-02-16 19:22:00,
2013-02-16 14:32:00,45.0,39.0,29.85,WNW,283,5.0,16.0,79,0.00,,,0.00,,2013-02-16 19:32:00,
2013-02-16 14:42:00,45.0,39.0,29.85,WNW,283,5.0,16.0,79,0.00,,,0.00,,2013-02-16 19:42:00,
2013-02-16 14:52:00,43.0,39.0,29.85,NNW,342,4.0,16.0,86,0.00,,,0.00,,2013-02-16 19:52:00,
2013-02-16 15:01:00,42.0,39.0,29.86,NNW,339,3.0,12.0,88,0.00,,,0.00,,2013-02-16 20:01:00,
2013-02-16 15:11:00,42.0,39.0,29.86,NNW,339,3.0,12.0,88,0.00,,,0.00,,2013-02-16 20:11:00,
2013-02-16 15:22:00,41.0,39.0,29.87,NW,308,3.0,7.0,91,0.01,,,0.01,,2013-02-16 20:22:00,
2013-02-16 15:32:00,41.0,38.0,29.86,WNW,295,2.0,10.0,90,0.01,,,0.01,,2013-02-16 20:32:00,
2013-02-16 15:42:00,41.0,38.0,29.86,WNW,295,2.0,10.0,90,0.01,,,0.01,,2013-02-16 20:42:00,
2013-02-16 15:52:00,41.0,39.0,29.87,West,278,2.0,8.0,92,0.02,,,0.02,,2013-02-16 20:52:00,
2013-02-16 16:02:00,41.0,39.0,29.87,West,278,2.0,8.0,92,0.02,,,0.02,,2013-02-16 21:02:00,
2013-02-16 16:11:00,41.0,39.0,29.87,West,278,2.0,8.0,92,0.02,,,0.02,,2013-02-16 21:11:00,
2013-02-16 16:21:00,40.0,38.0,29.82,ENE,65,1.0,7.0,93,0.03,,,0.03,,2013-02-16 21:21:00,
2013-02-16 16:32:00,41.0,39.0,29.83,WNW,296,0.0,5.0,93,0.02,,,0.03,,2013-02-16 21:32:00,
2013-02-16 16:42:00,41.0,39.0,29.83,WNW,296,0.0,5.0,93,0.02,,,0.03,,2013-02-16 21:42:00,
2013-02-16 16:52:00,41.0,39.0,29.84,WNW,282,0.0,2.0,94,0.00,,,0.03,,2013-02-16 21:52:00,
2013-02-16 17:01:00,41.0,39.0,29.84,WNW,282,0.0,2.0,94,0.00,,,0.03,,2013-02-16 22:01:00,
2013-02-16 17:11:00,41.0,39.0,29.84,WNW,282,0.0,2.0,94,0.00,,,0.03,,2013-02-16 22:11:00,
2013-02-16 17:21:00,43.0,40.0,29.85,West,270,2.0,5.0,88,0.00,,,0.03,,2013-02-16 22:21:00,
2013-02-16 17:32:00,43.0,40.0,29.85,West,270,2.0,5.0,88,0.00,,,0.03,,2013-02-16 22:32:00,
2013-02-16 17:42:00,43.0,40.0,29.85,West,270,2.0,5.0,88,0.00,,,0.03,,2013-02-16 22:42:00,
2013-02-16 17:52:00,42.0,39.0,29.85,West,259,2.0,6.0,88,0.00,,,0.03,,2013-02-16 22:52:00,
2013-02-16 18:02:00,42.0,39.0,29.85,WSW,249,1.0,3.0,88,0.00,,,0.03,,2013-02-16 23:02:00,
2013-02-16 18:11:00,42.0,39.0,29.85,WSW,249,1.0,3.0,88,0.00,,,0.03,,2013-02-16 23:11:00,
2013-02-16 18:21:00,41.0,38.0,29.86,West,275,0.0,3.0,89,0.00,,,0.03,,2013-02-16 23:21:00,
2013-02-16 18:32:00,41.0,38.0,29.86,West,275,0.0,3.0,89,0.00,,,0.03,,2013-02-16 23:32:00,
2013-02-16 18:42:00,41.0,38.0,29.86,West,275,0.0,3.0,89,0.00,,,0.03,,2013-02-16 23:42:00,
2013-02-16 18:52:00,40.0,38.0,29.86,SW,227,0.0,2.0,91,0.00,,,0.03,,2013-02-16 23:52:00,
2013-02-16 19:02:00,40.0,38.0,29.86,SW,227,0.0,2.0,91,0.00,,,0.03,,2013-02-17 00:02:00,
2013-02-16 19:12:00,40.0,38.0,29.86,SW,227,0.0,2.0,91,0.00,,,0.03,,2013-02-17 00:12:00,
2013-02-16 19:22:00,39.0,37.0,29.87,SW,227,0.0,0.0,93,0.00,,,0.03,,2013-02-17 00:22:00,
2013-02-16 19:32:00,38.0,36.0,29.88,West,270,0.0,1.0,93,0.00,,,0.03,,2013-02-17 00:32:00,
2013-02-16 19:42:00,38.0,36.0,29.88,West,270,0.0,1.0,93,0.00,,,0.03,,2013-02-17 00:42:00,
2013-02-16 19:52:00,38.0,37.0,29.88,West,269,1.0,2.0,95,0.00,,,0.03,,2013-02-17 00:52:00,
2013-02-16 20:01:00,38.0,37.0,29.88,West,269,1.0,2.0,95,0.00,,,0.03,,2013-02-17 01:01:00,
2013-02-16 20:11:00,38.0,37.0,29.88,West,269,1.0,2.0,95,0.00,,,0.03,,2013-02-17 01:11:00,
2013-02-16 20:21:00,38.0,37.0,29.88,SW,230,1.0,3.0,95,0.00,,,0.03,,2013-02-17 01:21:00,
2013-02-16 20:32:00,38.0,37.0,29.88,SW,230,1.0,3.0,95,0.00,,,0.03,,2013-02-17 01:32:00,
2013-02-16 20:42:00,38.0,37.0,29.88,SW,230,1.0,3.0,95,0.00,,,0.03,,2013-02-17 01:42:00,
2013-02-16 20:52:00,39.0,37.0,29.90,WSW,244,3.0,8.0,91,0.00,,,0.03,,2013-02-17 01:52:00,
2013-02-16 21:01:00,39.0,37.0,29.90,WSW,244,3.0,8.0,91,0.00,,,0.03,,2013-02-17 02:01:00,
2013-02-16 21:11:00,39.0,37.0,29.90,WSW,244,3.0,8.0,91,0.00,,,0.03,,2013-02-17 02:11:00,
2013-02-16 21:21:00,40.0,33.0,29.94,WNW,283,2.0,9.0,77,0.00,,,0.03,,2013-02-17 02:21:00,
2013-02-16 21:32:00,40.0,33.0,29.94,West,267,3.0,14.0,77,0.00,,,0.03,,2013-02-17 02:32:00,
2013-02-16 21:42:00,40.0,33.0,29.94,West,267,3.0,14.0,77,0.00,,,0.03,,2013-02-17 02:42:00,
2013-02-16 21:52:00,40.0,33.0,29.96,NW,320,4.0,14.0,76,0.00,,,0.03,,2013-02-17 02:52:00,
2013-02-16 22:02:00,40.0,33.0,29.96,NW,320,4.0,14.0,76,0.00,,,0.03,,2013-02-17 03:02:00,
2013-02-16 22:11:00,40.0,33.0,29.96,NW,320,4.0,14.0,76,0.00,,,0.03,,2013-02-17 03:11:00,
2013-02-16 22:21:00,39.0,32.0,29.97,NNW,344,2.0,13.0,77,0.00,,,0.03,,2013-02-17 03:21:00,
2013-02-16 22:32:00,39.0,32.0,29.97,NNW,344,2.0,13.0,77,0.00,,,0.03,,2013-02-17 03:32:00,
2013-02-16 22:42:00,39.0,32.0,29.97,NNW,344,2.0,13.0,77,0.00,,,0.03,,2013-02-17 03:42:00,
2013-02-16 22:52:00,39.0,32.0,29.97,NNW,344,2.0,13.0,77,0.00,,,0.03,,2013-02-17 03:52:00,
2013-02-16 23:01:00,38.0,31.0,29.99,WNW,303,1.0,7.0,77,0.00,,,0.03,,2013-02-17 04:01:00,
2013-02-16 23:11:00,38.0,31.0,29.99,WNW,303,1.0,7.0,77,0.00,,,0.03,,2013-02-17 04:11:00,
2013-02-16 23:21:00,38.0,31.0,30.00,NW,309,3.0,12.0,77,0.00,,,0.03,,2013-02-17 04:21:00,
2013-02-16 23:32:00,37.0,31.0,30.01,WNW,302,2.0,12.0,78,0.00,,,0.03,,2013-02-17 04:32:00,
2013-02-16 23:42:00,37.0,31.0,30.01,WNW,302,2.0,12.0,78,0.00,,,0.03,,2013-02-17 04:42:00,
2013-02-16 23:52:00,37.0,31.0,30.01,NW,314,1.0,7.0,80,0.00,,,0.03,,2013-02-17 04:52:00,